STARLINK-33800, 63576

Orbit data source: Space-Track

STARLINK-33800, 63576 is a payload satellite owned by SpaceX/Seattle (US) in LEO that was launched on Mon, 14 Apr 2025 UTC via an FALCON 9 launch vehicle from the Air Force Eastern Test Range (AFETR). Payload-class satellites include a variety of spacecraft equipped with specific instruments for various scientific and technological missions. These include communications satellites like Starlink; space stations such as the ISS; scientific satellites like the Hubble; Earth observation satellites from companies like Planet Labs, Umbra, and HawkEye 360; GPS; miniature CubeSats for education and research; and military/defense satellites.

Loading next visibility...
Identifier
63576, 2025-076H
Orbit
LEO
Last TLE update
12 hours ago
Origin
Manufacturer
SpaceX/Seattle
Mission
Operational Commercial Communications
Bus & Motor
STARLINK V2MO, Unknown motor
Mass
575 kg wet, ~530 kg dry
Launch date (UTC)
2025-04-14 (3 months ago)
Launch vehicle
FALCON 9
Launch site
Air Force Eastern Test Range (AFETR)
Object type
Payload
Rocket body
Debris
Shape & HBR
Box + 1 Pan, 29 m
Radar Cross Section
41.120 m², Large (>1 m²)

Expand to show TLE details & history

TLE from 12 hours ago
0 STARLINK-33800
1 63576U 25076H   25181.91668981  .00014806  00000-0  54644-3 0  9997
2 63576  42.9991 303.3819 0002177 273.8196 215.4566 15.27581081  5757
Epoch: 2025-06-30T22:00Z
TLE epoch observation values (Epoch: 2025-06-30T22:00:01.999Z)
Latitude
31.9942°
Longitude
-167.62507°
Altitude
485.172 km
Speed
7.627 km/s
True Right ascension
05h 26m 24s
True Declination
31° 50' 01"
Sunlit
Object was in daylight at epoch
Visualization orbit readout
Latitude
43.14664°
Longitude
142.80888°
Altitude
487.631 km
Speed
7.627 km/s
Apparent Right ascension
06h 00m 22s
Apparent Declination
6° 45' 40"
Sunlit
Object is in daylight
Visualization observer readout
Local Sidereal Time
22:01:44
Azimuth
64.826° ENE
Elevation
-17.537°
Doppler factor
1
Orbital elements
Apogee altitude
486.485 km
Perigee altitude
483.497 km
Semi-major axis
6,863.128 km
Eccentricity
0.00022
Inclination
42.9991°
RAAN
303.3819°
Arg. of periapsis
273.8196°
True anomaly
Unknown
Mean anomaly
215.4566°
Eccentric anomaly
Unknown
Mean motion
3.81733 °/min
Orbital period
94.31 mins
BSTAR
0.00054644
Loading maneuver chart data...
Loading SW <> Apogee altitude chart data...
Loading historical data...
Loading historical data...
Loading historical data...
Loading historical data...
Loading historical data...
Loading historical data...
Loading historical data...

STARLINK-33800 Visibility forecast

Observer location: undefined°, undefined°

Span
Click to sort rows by Start time (UTC) header in descending order
Start Az.
Max El. time (UTC)
Max El. Az.
Max El.
End time (UTC)
End Az.
7 mins2025-07-01 11:46:18.307Z229.381° WSW2025-07-01 11:49:18.307Z182.693° SSW36.103°2025-07-01 11:53:18.307Z78.246° E
6 mins2025-07-01 13:26:18.307Z275.459° WNW2025-07-01 13:28:18.307Z317.132° NNW38.95°2025-07-01 13:32:18.307Z71.108° E
6 mins2025-07-01 15:05:18.307Z292.503° NW2025-07-01 15:08:18.307Z35.697° NE39.463°2025-07-01 15:11:18.307Z88.257° E
6 mins2025-07-01 16:44:18.307Z277.734° WNW2025-07-01 16:47:18.307Z181.94° SSW37.136°2025-07-01 16:50:18.307Z130.315° SE
|